This is the latest recevied weather packets stored in our database for station/object XE2RCS-1. If no packets are shown the sender has not sent any weather packets the latest 10 day(s).
| Time | Temp. | Humidity | Pressure | Rain* | Wind** | Luminosity | Snow |
|---|---|---|---|---|---|---|---|
| 1788479843 | 27.22° C | 36% | 1013 hPa | 0 mm | - | - | - |
| 1788479242 | 28.33° C | 36% | 1013 hPa | 0 mm | - | - | - |
| 1788478641 | 28.33° C | 38% | 1015 hPa | 0 mm | - | - | - |
| 1788478041 | 28.33° C | 38% | 1015 hPa | 0 mm | - | - | - |
| 1788477440 | 28.33° C | 38% | 1014 hPa | 0 mm | - | - | - |
| 1788476839 | 28.33° C | 38% | 1014 hPa | 0 mm | - | - | - |
| 1788476239 | 28.33° C | 38% | 1011 hPa | 0 mm | - | - | - |
| 1788475638 | 27.78° C | 41% | 1011 hPa | 0 mm | - | - | - |
| 1788475038 | 28.33° C | 58% | 1011 hPa | 0 mm | - | - | - |
| 1788474437 | 28.33° C | 58% | 1015 hPa | 0 mm | - | - | - |
| 1788473836 | 28.33° C | 59% | 1014 hPa | 0 mm | - | - | - |
| 1788473235 | 27.22° C | 45% | 1014 hPa | 0 mm | - | - | - |
| 1788472635 | 26.67° C | 51% | 1010 hPa | 0 mm | - | - | - |
| 1788472034 | 26.67° C | 48% | 1010 hPa | 0 mm | - | - | - |
| 1788471433 | 26.11° C | 50% | 1010 hPa | 0 mm | - | - | - |
| 1788470833 | 26.67° C | 50% | 1011 hPa | 0 mm | - | - | - |
| 1788470232 | 27.22° C | 49% | 1011 hPa | 0 mm | - | - | - |
| 1788469632 | 28.33° C | 45% | 1011 hPa | 0 mm | - | - | - |
| 1788469031 | 28.33° C | 45% | 1011 hPa | 0 mm | - | - | - |
| 1788468431 | 28.33° C | 43% | 1012 hPa | 0 mm | - | - | - |
| 1788467829 | 28.33° C | 43% | 1012 hPa | 0 mm | - | - | - |
| 1788467229 | 28.89° C | 43% | 1015 hPa | 0 mm | - | - | - |
| 1788466628 | 28.89° C | 43% | 1015 hPa | 0 mm | - | - | - |
| 1788466027 | 30° C | 34% | 1013 hPa | 0 mm | - | - | - |
| 1788465427 | 30° C | 35% | 1013 hPa | 0 mm | - | - | - |
* Rain latest hour (hover to see other rain measurements)
** Current wind speed in m/s (hover to see current wind gust speed)